| time (UTC) | temp F | wind direction | speed knots | gust knots | rain 1hr in | rain 24hr in | rain mn in | humidity % | barometer mb |
| 20260904010622 | 65 | 207 | 3.5 | 5.2 | 0.00 | 0.02 | 0.00 | 1 | 1010.2 |
| 20260904005618 | 66 | 180 | 2.6 | 3.5 | 0.00 | 0.02 | 0.00 | 1 | 1010.2 |
| 20260904004634 | 66 | 222 | 4.3 | 4.3 | 0.00 | 0.02 | 0.00 | 1 | 1010.2 |
| 20260904003630 | 66 | 169 | 3.5 | 3.5 | 0.00 | 0.02 | 0.00 | 1 | 1010.4 |
| 20260904002627 | 66 | 170 | 3.5 | 4.3 | 0.00 | 0.02 | 0.00 | 1 | 1010.4 |
| 20260904001622 | 66 | 198 | 3.5 | 3.5 | 0.00 | 0.02 | 0.00 | 1 | 1010.7 |
| 20260904000619 | 66 | 174 | 5.2 | 7.0 | 0.00 | 0.02 | 0.00 | 1 | 1010.7 |
| 20260903235655 | 66 | 203 | 2.6 | 3.5 | 0.00 | 0.02 | 0.00 | 1 | 1010.8 |
| 20260903234651 | 66 | 192 | 2.6 | 3.5 | 0.00 | 0.02 | 0.00 | 1 | 1010.7 |
| 20260903233626 | 66 | 194 | 4.3 | 7.8 | 0.00 | 0.02 | 0.00 | 1 | 1010.7 |
| 20260903232623 | 67 | 185 | 5.2 | 7.8 | 0.00 | 0.02 | 0.00 | 1 | 1010.7 |
| 20260903231639 | 68 | 214 | 3.5 | 4.3 | 0.00 | 0.02 | 0.00 | 1 | 1010.9 |
| 20260903230635 | 68 | 184 | 4.3 | 7.0 | 0.00 | 0.02 | 0.00 | 1 | 1010.9 |
| 20260903225631 | 68 | 194 | 2.6 | 4.3 | 0.00 | 0.02 | 0.00 | 1 | 1011.0 |
| 20260903224707 | 68 | 172 | 2.6 | 4.3 | 0.00 | 0.02 | 0.00 | 1 | 1011.2 |
| 20260903223623 | 68 | 200 | 3.5 | 7.0 | 0.00 | 0.02 | 0.00 | 1 | 1011.2 |
| 20260903222620 | 67 | 230 | 1.7 | 3.5 | 0.00 | 0.02 | 0.00 | 1 | 1011.4 |
| 20260903221656 | 66 | 176 | 5.2 | 7.8 | 0.00 | 0.02 | 0.00 | 1 | 1011.5 |
| 20260903220652 | 67 | 177 | 5.2 | 6.1 | 0.00 | 0.02 | 0.00 | 1 | 1011.4 |
| 20260903215628 | 66 | 215 | 2.6 | 4.3 | 0.00 | 0.02 | 0.00 | 1 | 1011.4 |
| 20260903214624 | 67 | 213 | 2.6 | 7.0 | 0.00 | 0.02 | 0.00 | 1 | 1011.6 |
| 20260903213620 | 66 | 274 | 3.5 | 6.1 | 0.00 | 0.02 | 0.00 | 1 | 1011.6 |
| 20260903212621 | 66 | 208 | 5.2 | 9.6 | 0.00 | 0.02 | 0.00 | 1 | 1012.0 |
| 20260903211652 | 66 | 199 | 3.5 | 5.2 | 0.00 | 0.02 | 0.00 | 1 | 1012.0 |
| 20260903210628 | 66 | 237 | 6.1 | 9.6 | 0.00 | 0.02 | 0.00 | 1 | 1011.7 |
| 20260903205625 | 66 | 214 | 6.1 | 8.7 | 0.00 | 0.02 | 0.00 | 1 | 1012.0 |
| 20260903204641 | 65 | 277 | 5.2 | 8.7 | 0.00 | 0.02 | 0.00 | 1 | 1011.8 |
| 20260903203617 | 65 | 212 | 8.7 | 11.3 | 0.00 | 0.02 | 0.00 | 1 | 1012.1 |
| 20260903202633 | 65 | 217 | 4.3 | 7.0 | 0.00 | 0.02 | 0.00 | 1 | 1012.1 |
| 20260903201629 | 65 | 168 | 2.6 | 3.5 | 0.00 | 0.02 | 0.00 | 1 | 1012.2 |
| 20260903200630 | 65 | 212 | 3.5 | 5.2 | 0.00 | 0.02 | 0.00 | 1 | 1012.4 |
| 20260903195622 | 64 | 173 | 4.3 | 5.2 | 0.00 | 0.02 | 0.00 | 1 | 1012.3 |
| 20260903194617 | 63 | 217 | 2.6 | 4.3 | 0.00 | 0.02 | 0.00 | 1 | 1012.5 |
| 20260903193633 | 64 | 189 | 3.5 | 6.1 | 0.00 | 0.02 | 0.00 | 1 | 1012.5 |
| 20260903192629 | 63 | 228 | 3.5 | 7.0 | 0.00 | 0.02 | 0.00 | 1 | 1012.7 |
| 20260903191625 | 64 | 234 | 3.5 | 5.2 | 0.00 | 0.02 | 0.00 | 1 | 1012.7 |
| 20260903190642 | 64 | 190 | 3.5 | 5.2 | 0.00 | 0.02 | 0.00 | 1 | 1012.9 |
| 20260903185618 | 64 | 184 | 4.3 | 7.0 | 0.00 | 0.02 | 0.00 | 1 | 1013.0 |
| 20260903184634 | 64 | 193 | 2.6 | 4.3 | 0.00 | 0.02 | 0.00 | 1 | 1012.8 |
| 20260903183711 | 64 | 186 | 3.5 | 4.3 | 0.00 | 0.02 | 0.00 | 1 | 1013.0 |
| 20260903182626 | 63 | 208 | 6.1 | 9.6 | 0.00 | 0.02 | 0.00 | 1 | 1012.9 |
| 20260903181642 | 63 | 198 | 4.3 | 7.0 | 0.00 | 0.02 | 0.00 | 1 | 1012.9 |
| 20260903180619 | 63 | 194 | 3.5 | 6.1 | 0.00 | 0.02 | 0.00 | 1 | 1012.9 |
| 20260903175655 | 62 | 203 | 5.2 | 8.7 | 0.00 | 0.02 | 0.00 | 1 | 1012.9 |
| 20260903174631 | 62 | 207 | 3.5 | 5.2 | 0.00 | 0.02 | 0.00 | 1 | 1012.9 |
| 20260903173647 | 62 | 212 | 4.3 | 7.0 | 0.00 | 0.02 | 0.00 | 1 | 1013.0 |
| 20260903172622 | 62 | 207 | 2.6 | 5.2 | 0.00 | 0.02 | 0.00 | 1 | 1012.8 |
| 20260903171621 | 62 | 217 | 8.7 | 9.6 | 0.00 | 0.02 | 0.00 | 1 | 1012.9 |
| 20260903170635 | 62 | 233 | 5.2 | 8.7 | 0.00 | 0.02 | 0.00 | 1 | 1012.9 |
| 20260903165630 | 62 | 225 | 4.3 | 5.2 | 0.00 | 0.02 | 0.00 | 1 | 1013.0 |
| 20260903164626 | 62 | 162 | 2.6 | 3.5 | 0.00 | 0.02 | 0.00 | 1 | 1013.0 |
| 20260903163703 | 59 | 215 | 1.7 | 2.6 | 0.00 | 0.02 | 0.00 | 1 | 1013.0 |
| 20260903162618 | 60 | 191 | 4.3 | 7.8 | 0.00 | 0.02 | 0.00 | 1 | 1013.0 |
| 20260903161635 | 59 | 166 | 3.5 | 5.2 | 0.00 | 0.02 | 0.00 | 1 | 1013.1 |
| 20260903160631 | 59 | 178 | 3.5 | 5.2 | 0.00 | 0.02 | 0.00 | 1 | 1013.0 |
| 20260903155627 | 59 | 228 | 4.3 | 8.7 | 0.00 | 0.02 | 0.00 | 1 | 1012.8 |
| 20260903154623 | 59 | 200 | 3.5 | 5.2 | 0.00 | 0.02 | 0.00 | 1 | 1012.7 |
| 20260903153619 | 58 | 172 | 5.2 | 7.8 | 0.00 | 0.02 | 0.00 | 1 | 1012.7 |
| 20260903152619 | 57 | 183 | 9.6 | 13.9 | 0.00 | 0.02 | 0.00 | 1 | 1012.6 |
| 20260903151633 | 57 | 177 | 6.1 | 9.6 | 0.00 | 0.02 | 0.00 | 1 | 1012.7 |
| 20260903150628 | 57 | 190 | 6.1 | 9.6 | 0.00 | 0.02 | 0.00 | 1 | 1012.5 |
| 20260903145645 | 57 | 185 | 7.8 | 12.2 | 0.00 | 0.02 | 0.00 | 1 | 1012.5 |
| 20260903144621 | 56 | 196 | 7.0 | 9.6 | 0.00 | 0.02 | 0.00 | 1 | 1012.6 |
| 20260903143617 | 56 | 179 | 6.1 | 10.4 | 0.00 | 0.02 | 0.00 | 1 | 1012.4 |
| 20260903142634 | 55 | 184 | 7.0 | 9.6 | 0.00 | 0.02 | 0.00 | 1 | 1012.6 |
| 20260903141630 | 55 | 191 | 6.1 | 10.4 | 0.00 | 0.02 | 0.00 | 1 | 1012.6 |
| 20260903140626 | 54 | 204 | 7.0 | 11.3 | 0.00 | 0.02 | 0.00 | 1 | 1012.3 |
| 20260903135622 | 54 | 211 | 6.1 | 9.6 | 0.00 | 0.02 | 0.00 | 1 | 1012.3 |
| 20260903134617 | 54 | 210 | 4.3 | 7.8 | 0.00 | 0.02 | 0.00 | 1 | 1012.3 |
| 20260903133714 | 54 | 221 | 7.0 | 11.3 | 0.00 | 0.02 | 0.00 | 1 | 1012.2 |
| 20260903132630 | 53 | 194 | 4.3 | 7.0 | 0.00 | 0.02 | 0.00 | 1 | 1012.2 |
| 20260903131625 | 53 | 202 | 4.3 | 7.8 | 0.00 | 0.02 | 0.00 | 1 | 1012.2 |
| 20260903130622 | 53 | 215 | 5.2 | 10.4 | 0.00 | 0.02 | 0.00 | 1 | 1012.0 |
| 20260903125618 | 53 | 207 | 6.1 | 8.7 | 0.00 | 0.02 | 0.00 | 1 | 1012.0 |
| 20260903124633 | 53 | 202 | 6.1 | 11.3 | 0.00 | 0.02 | 0.00 | 1 | 1011.8 |
| 20260903123629 | 53 | 217 | 6.1 | 11.3 | 0.00 | 0.02 | 0.00 | 1 | 1011.8 |
| 20260903122625 | 54 | 194 | 4.3 | 5.2 | 0.00 | 0.02 | 0.00 | 1 | 1011.8 |
| 20260903121622 | 54 | 219 | 4.3 | 7.0 | 0.00 | 0.02 | 0.00 | 1 | 1011.9 |
| 20260903120617 | 54 | 215 | 6.1 | 8.7 | 0.00 | 0.02 | 0.00 | 1 | 1011.9 |
| 20260903115634 | 54 | 204 | 2.6 | 3.5 | 0.00 | 0.02 | 0.00 | 1 | 1011.8 |
| 20260903114630 | 54 | 211 | 4.3 | 7.0 | 0.00 | 0.02 | 0.00 | 1 | 1011.9 |
| 20260903113626 | 54 | 177 | 2.6 | 4.3 | 0.00 | 0.02 | 0.00 | 1 | 1011.8 |
| 20260903112623 | 55 | 187 | 3.5 | 5.2 | 0.00 | 0.02 | 0.00 | 1 | 1011.9 |
| 20260903111640 | 55 | 224 | 6.1 | 7.8 | 0.00 | 0.02 | 0.00 | 1 | 1011.8 |
| 20260903110702 | 55 | 188 | 5.2 | 9.6 | 0.00 | 0.02 | 0.00 | 1 | 1011.3 |
| 20260903105632 | 56 | 179 | 4.3 | 6.1 | 0.00 | 0.02 | 0.00 | 1 | 1011.4 |
| 20260903104629 | 56 | 218 | 5.2 | 9.6 | 0.00 | 0.02 | 0.00 | 1 | 1011.1 |
| 20260903103625 | 56 | 197 | 3.5 | 5.2 | 0.00 | 0.02 | 0.00 | 1 | 1011.0 |
| 20260903102620 | 56 | 160 | 3.5 | 4.3 | 0.00 | 0.02 | 0.00 | 1 | 1011.1 |
| 20260903101617 | 56 | 186 | 4.3 | 6.1 | 0.00 | 0.02 | 0.00 | 1 | 1011.2 |
| 20260903100633 | 56 | 178 | 5.2 | 8.7 | 0.00 | 0.02 | 0.00 | 1 | 1011.2 |
| 20260903095650 | 56 | 206 | 6.1 | 9.6 | 0.00 | 0.02 | 0.00 | 1 | 1011.2 |
| 20260903094625 | 56 | 218 | 3.5 | 4.3 | 0.00 | 0.02 | 0.00 | 1 | 1011.2 |
| 20260903093622 | 57 | 207 | 4.3 | 6.1 | 0.00 | 0.02 | 0.00 | 1 | 1011.1 |
| 20260903092618 | 57 | 205 | 8.7 | 9.6 | 0.00 | 0.02 | 0.00 | 1 | 1011.1 |
| 20260903091634 | 57 | 202 | 6.1 | 8.7 | 0.00 | 0.02 | 0.00 | 1 | 1010.8 |
| 20260903090630 | 57 | 192 | 3.5 | 7.0 | 0.00 | 0.02 | 0.00 | 1 | 1010.9 |
| 20260903085626 | 57 | 206 | 6.1 | 7.8 | 0.00 | 0.02 | 0.00 | 1 | 1010.8 |
| 20260903084623 | 57 | 212 | 6.1 | 9.6 | 0.00 | 0.02 | 0.00 | 1 | 1010.7 |
| 20260903083619 | 57 | 183 | 5.2 | 7.0 | 0.00 | 0.02 | 0.00 | 1 | 1010.9 |
| 20260903082634 | 57 | 211 | 7.0 | 9.6 | 0.00 | 0.02 | 0.00 | 1 | 1010.7 |
| 20260903081651 | 57 | 199 | 6.1 | 10.4 | 0.00 | 0.02 | 0.00 | 1 | 1010.4 |
| 20260903080627 | 57 | 185 | 4.3 | 6.1 | 0.00 | 0.02 | 0.00 | 1 | 1010.4 |
| 20260903075724 | 57 | 215 | 5.2 | 8.7 | 0.00 | 0.02 | 0.00 | 1 | 1010.1 |
| 20260903074620 | 57 | 209 | 5.2 | 8.7 | 0.00 | 0.02 | 0.00 | 1 | 1010.2 |
| 20260903073616 | 57 | 205 | 6.1 | 9.6 | 0.00 | 0.02 | 0.00 | 1 | 1010.2 |
| 20260903072633 | 57 | 188 | 5.2 | 7.0 | 0.00 | 0.02 | 0.00 | 1 | 1010.1 |
| 20260903071650 | 57 | 202 | 6.1 | 11.3 | 0.00 | 0.02 | 0.00 | 1 | 1010.2 |
| 20260903070626 | 57 | 192 | 6.1 | 11.3 | 0.01 | 0.02 | 0.00 | 1 | 1010.0 |
| 20260903065622 | 57 | 199 | 6.1 | 7.8 | 0.01 | 0.02 | 0.02 | 1 | 1009.9 |
| 20260903064618 | 57 | 197 | 7.0 | 9.6 | 0.01 | 0.02 | 0.02 | 1 | 1009.9 |
| 20260903063635 | 57 | 217 | 5.2 | 8.7 | 0.01 | 0.02 | 0.02 | 1 | 1009.9 |
| 20260903062631 | 57 | 197 | 6.1 | 9.6 | 0.01 | 0.01 | 0.01 | 1 | 1010.0 |
| 20260903061627 | 57 | 192 | 7.8 | 10.4 | 0.01 | 0.01 | 0.01 | 1 | 1009.9 |
| 20260903060623 | 57 | 205 | 7.0 | 12.2 | 0.00 | 0.01 | 0.01 | 1 | 1009.8 |
| 20260903055619 | 58 | 191 | 9.6 | 13.9 | 0.00 | 0.01 | 0.01 | 1 | 1009.8 |
| 20260903054635 | 58 | 194 | 5.2 | 9.6 | 0.00 | 0.01 | 0.01 | 1 | 1010.0 |
| 20260903053631 | 59 | 207 | 11.3 | 17.4 | 0.00 | 0.00 | 0.00 | 1 | 1010.0 |
| 20260903052627 | 59 | 191 | 5.2 | 10.4 | 0.00 | 0.00 | 0.00 | 1 | 1010.1 |
| 20260903051624 | 59 | 202 | 8.7 | 10.4 | 0.00 | 0.00 | 0.00 | 1 | 1009.9 |
| 20260903050620 | 59 | 202 | 8.7 | 11.3 | 0.00 | 0.00 | 0.00 | 1 | 1010.0 |
| 20260903045616 | 60 | 208 | 6.1 | 11.3 | 0.00 | 0.00 | 0.00 | 1 | 1009.8 |
| 20260903044632 | 60 | 215 | 6.1 | 10.4 | 0.00 | 0.00 | 0.00 | 1 | 1009.7 |
| 20260903043628 | 60 | 198 | 7.8 | 12.2 | 0.00 | 0.00 | 0.00 | 1 | 1009.6 |
| 20260903042625 | 60 | 198 | 5.2 | 14.8 | 0.00 | 0.00 | 0.00 | 1 | 1009.7 |
| 20260903041701 | 60 | 208 | 7.0 | 16.5 | 0.00 | 0.00 | 0.00 | 1 | 1009.6 |
| 20260903040616 | 60 | 190 | 5.2 | 10.4 | 0.00 | 0.00 | 0.00 | 1 | 1009.6 |
| 20260903035653 | 60 | 195 | 6.1 | 13.0 | 0.00 | 0.00 | 0.00 | 1 | 1009.6 |
| 20260903034629 | 60 | 199 | 7.0 | 9.6 | 0.00 | 0.00 | 0.00 | 1 | 1009.5 |
| 20260903033625 | 60 | 200 | 7.8 | 10.4 | 0.00 | 0.00 | 0.00 | 1 | 1009.5 |
| 20260903032621 | 60 | 196 | 7.0 | 10.4 | 0.00 | 0.00 | 0.00 | 1 | 1009.6 |
| 20260903031617 | 60 | 202 | 6.1 | 9.6 | 0.00 | 0.00 | 0.00 | 1 | 1009.3 |
| 20260903030633 | 61 | 199 | 4.3 | 7.8 | 0.00 | 0.00 | 0.00 | 1 | 1009.3 |
| 20260903025629 | 61 | 196 | 4.3 | 8.7 | 0.00 | 0.00 | 0.00 | 1 | 1009.1 |
| 20260903024645 | 61 | 198 | 5.2 | 7.8 | 0.00 | 0.00 | 0.00 | 1 | 1009.2 |
| 20260903023622 | 61 | 204 | 7.0 | 8.7 | 0.00 | 0.00 | 0.00 | 1 | 1009.4 |
| 20260903022618 | 61 | 188 | 7.0 | 13.0 | 0.00 | 0.00 | 0.00 | 1 | 1009.4 |
| 20260903021654 | 61 | 201 | 8.7 | 12.2 | 0.00 | 0.00 | 0.00 | 1 | 1009.2 |
| 20260903020631 | 61 | 205 | 7.0 | 10.4 | 0.00 | 0.00 | 0.00 | 1 | 1009.2 |
| 20260903015627 | 62 | 217 | 5.2 | 10.4 | 0.00 | 0.00 | 0.00 | 1 | 1009.4 |
| 20260903014623 | 62 | 199 | 7.8 | 13.0 | 0.00 | 0.00 | 0.00 | 1 | 1009.5 |
| 20260903013619 | 63 | 217 | 6.1 | 10.4 | 0.00 | 0.00 | 0.00 | 1 | 1009.2 |
| 20260903012656 | 63 | 217 | 10.4 | 14.8 | 0.00 | 0.00 | 0.00 | 1 | 1009.4 |
| 20260903011632 | 63 | 221 | 7.8 | 13.9 | 0.00 | 0.00 | 0.00 | 1 | 1009.4 |